FW0152 North Kingstown RI US current weather conditions

sailwx.info

Wind from 188

Air temperature 24.4° C
Dewpoint 21.4° C

Last reported at 2020-Jul-12 13:00 UTC.
Time now 2020-Jul-12 13:25 UTC

Location: N 41°38' W 071°26'.
View on Google Maps.

See reports from other nearby stations

  
Tides and Currents Weather Stations Pressure Air Temp Water Temp Dewpoint Dewpoint Depression Visibility Wind Speed Wind Dir Waves Ship Positions
date/time (UTC)wind fromknots sea level pressurealtimeterstation pressurevisibilityair tempwater tempwave heightnotes
2020-Jul-12 13:07 146 25.0
2020-Jul-12 13:00 188 24.4
2020-Jul-12 12:49 126 3 gusting 4 24.4
2020-Jul-12 12:42 204 24.4
2020-Jul-12 12:35 186 24.4
2020-Jul-12 12:28 196 23.9
2020-Jul-12 12:21 167 23.9
2020-Jul-12 12:14 181 23.9
2020-Jul-12 12:07 013 1 gusting 2 23.9
2020-Jul-12 12:00 192 23.3
2020-Jul-12 11:49 161 23.3
2020-Jul-12 11:42 234 3 gusting 4 22.8
2020-Jul-12 11:35 192 22.8
2020-Jul-12 11:28 181 22.8
2020-Jul-12 11:21 200 22.8
2020-Jul-12 11:14 109 22.2
2020-Jul-12 11:07 225 22.2
2020-Jul-12 11:00 176 22.2
2020-Jul-12 10:49 182 22.2
2020-Jul-12 10:42 187 22.2
2020-Jul-12 10:35 188 21.7
2020-Jul-12 10:28 169 21.7
2020-Jul-12 10:21 166 21.7
2020-Jul-12 10:14 182 21.7
2020-Jul-12 10:07 168 21.7
2020-Jul-12 10:00 166 21.7
2020-Jul-12 09:49 224 21.7
2020-Jul-12 09:42 180 21.7
2020-Jul-12 09:35 105 21.7
2020-Jul-12 09:28 193 21.7
2020-Jul-12 09:21 177 21.7
2020-Jul-12 09:14 180 21.7
2020-Jul-12 09:07 197 21.7
2020-Jul-12 09:00 183 21.7
2020-Jul-12 08:49 181 21.7
2020-Jul-12 08:42 173 21.7
2020-Jul-12 08:35 183 22.2
2020-Jul-12 08:28 182 22.2
2020-Jul-12 08:21 175 22.2
2020-Jul-12 08:14 182 22.2
2020-Jul-12 08:07 183 22.2
2020-Jul-12 08:00 168 22.2
2020-Jul-12 07:49 236 22.2
2020-Jul-12 07:42 180 22.2
2020-Jul-12 07:35 305 22.2
2020-Jul-12 07:28 173 22.2
2020-Jul-12 07:21 173 22.2
2020-Jul-12 07:14 166 22.2
2020-Jul-12 07:07 181 22.2
2020-Jul-12 07:00 352 0 gusting 2 22.2
2020-Jul-12 06:49 164 22.2
2020-Jul-12 06:42 180 22.2
2020-Jul-12 06:35 179 22.2
2020-Jul-12 06:28 231 22.2
2020-Jul-12 06:21 188 22.2
2020-Jul-12 06:14 179 22.8
2020-Jul-12 06:07 182 22.8
2020-Jul-12 06:00 197 22.8
2020-Jul-12 05:49 306 22.8
2020-Jul-12 05:42 047 22.8
2020-Jul-12 05:35 146 22.8
2020-Jul-12 05:28 186 22.8
2020-Jul-12 05:21 209 22.8
2020-Jul-12 05:14 161 22.8
2020-Jul-12 05:07 190 22.8
2020-Jul-12 05:00 176 0 gusting 2 22.8
2020-Jul-12 04:49 129 1 gusting 2 22.8
2020-Jul-12 04:42 145 22.8
2020-Jul-12 04:35 332 22.8
2020-Jul-12 04:28 267 3 gusting 4 22.8
2020-Jul-12 04:21 175 22.8
2020-Jul-12 04:14 163 22.8
2020-Jul-12 04:07 221 22.8
2020-Jul-12 04:00 187 22.8
2020-Jul-12 03:49 036 1 gusting 2 22.8
2020-Jul-12 03:42 178 22.8
2020-Jul-12 03:35 136 0 gusting 2 22.8
2020-Jul-12 03:28 181 22.8
2020-Jul-12 03:21 318 1 gusting 4 22.8
2020-Jul-12 03:14 191 22.8
2020-Jul-12 03:07 150 22.8
2020-Jul-12 03:00 186 23.3
2020-Jul-12 02:49 235 23.3
2020-Jul-12 02:42 057 2 gusting 4 23.3
2020-Jul-12 02:35 231 23.3
2020-Jul-12 02:28 213 0 gusting 2 23.3
2020-Jul-12 02:21 136 0 gusting 2 23.3
2020-Jul-12 02:14 142 23.3
2020-Jul-12 02:07 125 23.3
2020-Jul-12 02:00 193 0 gusting 2 23.3
2020-Jul-12 01:49 061 1 gusting 2 23.9
2020-Jul-12 01:42 060 23.9
2020-Jul-12 01:35 174 23.9
2020-Jul-12 01:28 188 23.9
2020-Jul-12 01:21 168 0 gusting 2 23.9
2020-Jul-12 01:14 148 23.9
2020-Jul-12 01:07 123 0 gusting 2 23.9
2020-Jul-12 01:00 296 5 gusting 6 23.9
2020-Jul-12 00:56 162 23.9
2020-Jul-12 00:49 175 23.9
2020-Jul-12 00:42 008 0 gusting 2 23.9
2020-Jul-12 00:35 253 0 gusting 2 23.9
2020-Jul-12 00:28 209 23.9
2020-Jul-12 00:21 097 24.4
2020-Jul-12 00:14 179 24.4
2020-Jul-12 00:07 123 2 gusting 2 24.4
2020-Jul-12 00:00 206 24.4
2020-Jul-11 23:49 229 24.4
2020-Jul-11 23:42 229 25.0
2020-Jul-11 23:35 172 25.0
2020-Jul-11 23:28 181 25.0
2020-Jul-11 23:21 216 25.0
2020-Jul-11 23:14 235 25.0
2020-Jul-11 23:07 164 25.0
2020-Jul-11 23:00 174 25.0
2020-Jul-11 22:49 187 25.0
2020-Jul-11 22:42 015 2 gusting 2 25.0
2020-Jul-11 22:35 200 25.0
2020-Jul-11 22:28 355 25.0
2020-Jul-11 22:21 176 25.0
2020-Jul-11 22:14 162 25.0
2020-Jul-11 22:07 171 25.0
2020-Jul-11 22:00 183 25.0
2020-Jul-11 21:49 161 25.0
2020-Jul-11 21:42 325 1 gusting 2 25.0
2020-Jul-11 21:35 187 25.0
2020-Jul-11 21:28 182 25.0
2020-Jul-11 21:21 202 25.0
2020-Jul-11 21:14 200 25.0
2020-Jul-11 21:07 309 2 gusting 4 25.0
2020-Jul-11 21:00 193 25.0
2020-Jul-11 20:49 140 5 gusting 6 25.6
2020-Jul-11 20:42 185 25.6
2020-Jul-11 20:35 133 25.6
2020-Jul-11 20:28 240 25.6
2020-Jul-11 20:21 210 1 gusting 2 26.1
2020-Jul-11 20:14 144 1 gusting 2 26.1
2020-Jul-11 20:07 158 26.1
2020-Jul-11 20:00 178 26.1
2020-Jul-11 19:49 136 1 gusting 2 26.1
2020-Jul-11 19:42 278 0 gusting 2 26.1
2020-Jul-11 19:35 159 26.1
2020-Jul-11 19:28 184 0 gusting 2 26.7
2020-Jul-11 19:21 042 1 gusting 4 26.7
2020-Jul-11 19:14 061 1 gusting 2 27.2
2020-Jul-11 19:07 127 0 gusting 2 27.2
2020-Jul-11 19:00 138 27.2
2020-Jul-11 18:49 141 0 gusting 2 27.8
2020-Jul-11 18:42 183 27.8
2020-Jul-11 18:35 012 1 gusting 2 27.8
2020-Jul-11 18:28 155 28.3
2020-Jul-11 18:21 145 1 gusting 2 28.3
2020-Jul-11 18:14 206 0 gusting 2 28.9
2020-Jul-11 18:07 035 0 gusting 2 29.4
2020-Jul-11 18:00 160 0 gusting 2 29.4
2020-Jul-11 17:49 171 1 gusting 2 30.0
2020-Jul-11 17:42 137 0 gusting 2 29.4
2020-Jul-11 17:35 084 0 gusting 2 29.4
2020-Jul-11 17:28 003 1 gusting 2 29.4
2020-Jul-11 17:21 180 28.9
2020-Jul-11 17:14 136 1 gusting 2 28.9
2020-Jul-11 17:07 179 0 gusting 2 28.3
2020-Jul-11 17:00 165 28.3
2020-Jul-11 16:49 113 28.3
2020-Jul-11 16:42 203 27.8
2020-Jul-11 16:35 340 3 gusting 6 27.8
2020-Jul-11 16:28 192 27.8
2020-Jul-11 16:21 154 27.8
2020-Jul-11 16:14 354 27.8
2020-Jul-11 16:07 178 1 gusting 2 27.8
2020-Jul-11 16:00 202 27.8
2020-Jul-11 15:49 105 0 gusting 2 27.8
2020-Jul-11 15:42 168 27.2
2020-Jul-11 15:35 247 1 gusting 4 27.2
2020-Jul-11 15:28 192 0 gusting 2 26.7
2020-Jul-11 15:21 278 26.7
2020-Jul-11 15:14 182 26.7
2020-Jul-11 15:07 223 27.2
2020-Jul-11 15:00 144 0 gusting 2 27.2
2020-Jul-11 14:49 166 1 gusting 2 26.7
2020-Jul-11 14:42 168 0 gusting 2 26.7
2020-Jul-11 14:35 137 3 gusting 4 26.1
2020-Jul-11 14:28 099 1 gusting 2 25.6
2020-Jul-11 14:21 140 0 gusting 2 25.6
2020-Jul-11 14:14 205 25.0
2020-Jul-11 14:07 343 0 gusting 2 25.0
2020-Jul-11 14:00 149 0 gusting 2 25.0
2020-Jul-11 13:49 352 2 gusting 4 25.0
2020-Jul-11 13:42 191 0 gusting 2 25.0
2020-Jul-11 13:35 283 24.4
2020-Jul-11 13:28 211 0 gusting 2 24.4
2020-Jul-11 13:21 133 0 gusting 2 24.4
2020-Jul-11 13:14 189 24.4
2020-Jul-11 13:07 284 5 gusting 8 23.9
2020-Jul-11 13:00 255 23.9
2020-Jul-11 12:49 312 23.9
2020-Jul-11 12:42 173 23.9
2020-Jul-11 12:35 327 23.9
2020-Jul-11 12:28 169 23.9
2020-Jul-11 12:21 197 23.3
2020-Jul-11 12:14 196 23.3
2020-Jul-11 12:07 187 23.3
2020-Jul-11 12:00 206 23.3
2020-Jul-11 11:49 103 0 gusting 2 23.3
2020-Jul-11 11:42 187 22.8
2020-Jul-11 11:35 174 1 gusting 2 22.8
2020-Jul-11 11:28 182 22.8
2020-Jul-11 11:21 200 22.8
2020-Jul-11 11:14 066 4 gusting 8 22.8
2020-Jul-11 11:07 101 22.8
2020-Jul-11 11:00 143 22.8
2020-Jul-11 10:49 104 22.8
2020-Jul-11 10:42 179 22.8
2020-Jul-11 10:35 215 22.8
2020-Jul-11 10:28 173 22.8
2020-Jul-11 10:21 071 0 gusting 2 22.8
2020-Jul-11 10:14 132 22.8
2020-Jul-11 10:07 225 22.8
2020-Jul-11 10:00 193 22.8
2020-Jul-11 09:49 158 22.2
2020-Jul-11 09:42 121 22.2
2020-Jul-11 09:35 088 0 gusting 2 22.2
2020-Jul-11 09:28 180 22.2
2020-Jul-11 09:21 160 22.2
2020-Jul-11 09:14 165 22.2
2020-Jul-11 09:07 138 22.2
2020-Jul-11 09:00 160 22.2
2020-Jul-11 08:49 165 22.8
2020-Jul-11 08:42 179 22.8
2020-Jul-11 08:35 100 1 gusting 2 22.8
2020-Jul-11 08:28 122 22.8
2020-Jul-11 08:21 127 22.8
2020-Jul-11 08:14 156 22.8
2020-Jul-11 08:07 171 22.8
2020-Jul-11 08:00 122 0 gusting 2 22.8
2020-Jul-11 07:49 172 22.8
2020-Jul-11 07:42 152 0 gusting 2 22.8
2020-Jul-11 07:35 167 23.3
2020-Jul-11 07:28 118 23.3
2020-Jul-11 07:14 129 22.8
2020-Jul-11 07:07 212 0 gusting 2 22.8
2020-Jul-11 07:00 118 22.8
2020-Jul-11 06:49 177 22.8
2020-Jul-11 06:42 173 2 gusting 4 22.8
2020-Jul-11 06:35 185 22.8
2020-Jul-11 06:28 152 22.8
2020-Jul-11 06:21 170 22.8
2020-Jul-11 06:14 127 22.8
2020-Jul-11 06:07 041 0 gusting 2 22.8
2020-Jul-11 06:00 114 22.8
2020-Jul-11 05:49 091 0 gusting 2 22.8
2020-Jul-11 05:42 121 1 gusting 2 22.8
2020-Jul-11 05:35 142 0 gusting 2 22.8
2020-Jul-11 05:28 137 22.8
2020-Jul-11 05:21 158 22.8
2020-Jul-11 05:14 163 1 gusting 2 22.8
2020-Jul-11 05:07 113 22.8
2020-Jul-11 05:00 150 22.8
2020-Jul-11 04:49 151 5 gusting 6 22.2
2020-Jul-11 04:42 174 22.2
2020-Jul-11 04:35 045 4 gusting 6 22.2
2020-Jul-11 04:28 147 22.2
2020-Jul-11 04:21 091 22.2
2020-Jul-11 04:14 175 22.2
2020-Jul-11 04:07 120 22.2
2020-Jul-11 04:00 081 22.2
2020-Jul-11 03:49 143 22.2
2020-Jul-11 03:42 149 22.2
2020-Jul-11 03:35 140 22.8
2020-Jul-11 03:28 128 0 gusting 2 22.8
2020-Jul-11 03:21 144 2 gusting 4 22.8
2020-Jul-11 03:14 151 1 gusting 2 22.8
2020-Jul-11 03:07 131 22.8
2020-Jul-11 03:00 160 22.8
2020-Jul-11 02:49 121 3 gusting 4 22.8
2020-Jul-11 02:42 124 1 gusting 2 22.8
2020-Jul-11 02:35 138 4 gusting 6 22.8
2020-Jul-11 02:28 126 2 gusting 4 22.8
2020-Jul-11 02:21 124 2 gusting 4 22.8
2020-Jul-11 02:07 049 3 gusting 4 23.9
2020-Jul-11 02:00 131 4 gusting 6 23.9
2020-Jul-11 01:49 158 1 gusting 2 23.9
2020-Jul-11 01:42 102 1 gusting 2 23.9
2020-Jul-11 01:35 069 3 gusting 4 23.9
2020-Jul-11 01:28 119 1 gusting 2 23.9
2020-Jul-11 01:21 125 3 gusting 4 23.9
2020-Jul-11 01:14 205 2 gusting 4 23.9
2020-Jul-11 01:07 102 0 gusting 2 23.9
2020-Jul-11 01:00 140 1 gusting 4 24.4
2020-Jul-11 00:49 231 0 gusting 2 24.4
2020-Jul-11 00:42 085 2 gusting 4 24.4
2020-Jul-11 00:35 067 1 gusting 2 24.4
2020-Jul-11 00:28 042 1 gusting 2 24.4
2020-Jul-11 00:21 109 1 gusting 2 24.4
2020-Jul-11 00:14 163 0 gusting 2 24.4
2020-Jul-11 00:00 113 0 gusting 2 24.4
2020-Jul-10 23:49 131 24.4
2020-Jul-10 23:42 150 24.4
2020-Jul-10 23:35 129 1 gusting 4 24.4
2020-Jul-10 23:28 168 24.4
2020-Jul-10 23:21 072 24.4
2020-Jul-10 23:14 213 24.4
2020-Jul-10 23:07 119 4 gusting 6 24.4
2020-Jul-10 23:00 167 24.4
2020-Jul-10 22:49 184 0 gusting 2 24.4
2020-Jul-10 22:42 089 0 gusting 2 24.4
2020-Jul-10 22:35 115 2 gusting 4 24.4
2020-Jul-10 22:21 100 3 gusting 6 24.4
2020-Jul-10 22:14 205 24.4
2020-Jul-10 22:07 123 0 gusting 2 25.0
2020-Jul-10 22:00 175 25.0
2020-Jul-10 21:49 178 25.0
2020-Jul-10 21:42 180 25.0
2020-Jul-10 21:35 114 0 gusting 2 24.4
2020-Jul-10 21:28 152 24.4
2020-Jul-10 21:21 309 0 gusting 2 24.4
2020-Jul-10 21:14 242 0 gusting 2 24.4
2020-Jul-10 21:07 106 24.4
2020-Jul-10 21:00 126 0 gusting 2 25.0
2020-Jul-10 20:49 049 1 gusting 2 25.0
2020-Jul-10 20:42 134 0 gusting 2 25.0
2020-Jul-10 20:35 182 25.6
2020-Jul-10 20:28 134 2 gusting 4 25.6
2020-Jul-10 20:21 137 1 gusting 2 25.6
2020-Jul-10 20:14 118 2 gusting 4 25.6
2020-Jul-10 20:07 177 25.6
2020-Jul-10 20:00 148 0 gusting 2 25.6
2020-Jul-10 19:49 151 1 gusting 2 25.6
2020-Jul-10 19:42 144 0 gusting 2 25.6
2020-Jul-10 19:35 184 2 gusting 2 25.6
2020-Jul-10 19:28 131 25.6
2020-Jul-10 19:21 150 1 gusting 2 25.6
2020-Jul-10 19:14 142 3 gusting 4 25.6
2020-Jul-10 19:07 177 25.6
2020-Jul-10 19:00 189 25.6
2020-Jul-10 18:49 168 26.1
2020-Jul-10 18:42 146 0 gusting 2 26.7
2020-Jul-10 18:35 113 26.7
2020-Jul-10 18:28 153 0 gusting 2 27.2
2020-Jul-10 18:21 147 27.2
2020-Jul-10 18:14 126 27.2
2020-Jul-10 18:07 190 1 gusting 4 27.2
2020-Jul-10 18:00 175 4 gusting 6 27.2
2020-Jul-10 17:49 086 5 gusting 6 26.7
2020-Jul-10 17:42 196 0 gusting 2 26.7
2020-Jul-10 17:35 072 1 gusting 2 26.7
2020-Jul-10 17:28 191 1 gusting 2 26.7
2020-Jul-10 17:21 172 0 gusting 2 26.7
2020-Jul-10 17:14 091 1 gusting 2 26.7
2020-Jul-10 17:07 089 2 gusting 4 26.7
2020-Jul-10 17:00 140 26.7
2020-Jul-10 16:49 091 3 gusting 6 26.7
2020-Jul-10 16:42 101 0 gusting 2 26.7
2020-Jul-10 16:35 179 0 gusting 2 27.2
2020-Jul-10 16:28 148 2 gusting 2 27.2
2020-Jul-10 16:21 107 27.2
2020-Jul-10 16:14 139 4 gusting 6 27.2
2020-Jul-10 16:07 146 27.2
2020-Jul-10 16:00 163 2 gusting 4 27.2
2020-Jul-10 15:49 111 1 gusting 2 27.2
2020-Jul-10 15:42 180 0 gusting 2 26.7
2020-Jul-10 15:35 188 1 gusting 2 26.7
2020-Jul-10 15:28 151 1 gusting 4 26.7
2020-Jul-10 15:21 122 26.1
2020-Jul-10 15:14 100 0 gusting 2 26.1
2020-Jul-10 15:07 087 5 gusting 6 26.1
2020-Jul-10 15:00 199 26.1
2020-Jul-10 14:49 188 1 gusting 2 26.1
2020-Jul-10 14:42 175 25.6
2020-Jul-10 14:35 070 1 gusting 2 25.6
2020-Jul-10 14:28 100 25.6
2020-Jul-10 14:21 155 25.0
2020-Jul-10 14:14 127 2 gusting 4 25.0
2020-Jul-10 14:07 147 3 gusting 4 25.0
2020-Jul-10 14:00 123 2 gusting 4 24.4
2020-Jul-10 13:49 154 1 gusting 2 23.9
2020-Jul-10 13:42 150 23.9
2020-Jul-10 13:35 011 1 gusting 2 23.3
2020-Jul-10 13:28 217 23.3
2020-Jul-10 13:21 053 23.3
2020-Jul-10 13:07 067 1 gusting 2 22.8
2020-Jul-10 13:00 187 22.8